Location: Feudal
(51.8839°N, 107.6105°W)
Time: 06:08:03
(UTC+00:00)

Envisat - Pass Details

Date: 27 January 2022
Orbit: 764 x 765 km, 98.2° (Epoch: 25 May)

Event Time Altitude Azimuth Distance (km) Brightness Sun altitude
Rises 13:38:07 0° 7° (N) 3,245 6.2 -12.1°
Reaches altitude 10° 13:40:47 10° 354° (N) 2,315 5.3 -11.7°
Maximum altitude 13:44:50 25° 301° (WNW) 1,533 4.0 -11.1°
Drops below altitude 10° 13:48:52 10° 249° (WSW) 2,304 5.0 -10.5°
Sets 13:51:31 0° 236° (SW) 3,226 5.9 -10.1°
